QPF
0.09 0.08 0.07 0.07 0.06 0.05 0.04 0.04 0.03 0.02 0.01 0.01 0.01 0.01 0.01 0.01 0.00 0.01 0.01 0.00 0.00 0.00 0.00 0.01 0.02 0.02 0.02 0.03 0.03 0.04 0.04 0.06 0.06 0.06 0.07 0.08 0.08 0.08
0.08 0.08 0.08 0.08 0.09 0.08 0.07 0.06 0.05 0.04 0.03 0.01 0.01 0.02 0.01 0.00 0.00 0.01 0.01 0.00 0.01 0.00 0.01 0.02 0.02 0.02 0.02 0.02 0.02 0.02 0.02 0.04 0.05 0.07 0.07 0.06 0.06 0.06
0.08 0.09 0.10 0.09 0.09 0.10 0.11 0.09 0.07 0.06 0.05 0.03 0.03 0.03 0.02 0.01 0.01 0.02 0.01 0.00 0.00 0.00 0.00 0.01 0.01 0.01 0.02 0.02 0.02 0.03 0.04 0.04 0.05 0.06 0.08 0.09 0.08 0.07
0.06 0.08 0.10 0.11 0.11 0.10 0.12 0.13 0.12 0.10 0.07 0.06 0.05 0.04 0.04 0.03 0.02 0.02 0.01 0.01 0.01 0.00 0.00 0.00 0.01 0.01 0.01 0.02 0.02 0.03 0.03 0.04 0.04 0.04 0.05 0.08 0.10 0.11
0.03 0.05 0.08 0.11 0.11 0.12 0.12 0.11 0.12 0.12 0.12 0.09 0.07 0.06 0.06 0.04 0.03 0.02 0.01 0.01 0.01 0.01 0.00 0.00 0.00 0.00 0.01 0.01 0.01 0.02 0.02 0.02 0.03 0.04 0.06 0.09 0.12 0.13
0.02 0.04 0.05 0.08 0.11 0.12 0.11 0.10 0.09 0.09 0.11 0.11 0.10 0.08 0.07 0.04 0.03 0.03 0.02 0.01 0.01 0.01 0.01 0.00 0.01 0.01 0.01 0.01 0.01 0.01 0.01 0.01 0.02 0.03 0.05 0.07 0.10 0.12
0.02 0.03 0.03 0.05 0.08 0.12 0.12 0.11 0.09 0.08 0.08 0.09 0.10 0.09 0.08 0.05 0.04 0.03 0.02 0.01 0.01 0.01 0.01 0.01 0.01 0.01 0.01 0.02 0.02 0.02 0.01 0.02 0.02 0.02 0.04 0.06 0.08 0.09
0.02 0.03 0.04 0.03 0.04 0.06 0.09 0.11 0.11 0.09 0.09 0.08 0.08 0.09 0.08 0.06 0.04 0.03 0.03 0.02 0.02 0.01 0.01 0.01 0.01 0.01 0.01 0.01 0.02 0.02 0.02 0.02 0.02 0.02 0.03 0.05 0.08 0.08
0.03 0.03 0.02 0.03 0.03 0.04 0.05 0.07 0.09 0.09 0.08 0.08 0.08 0.07 0.09 0.07 0.05 0.04 0.03 0.02 0.02 0.01 0.01 0.01 0.01 0.01 0.01 0.01 0.01 0.01 0.02 0.02 0.02 0.02 0.02 0.04 0.08 0.08
0.03 0.02 0.02 0.02 0.03 0.04 0.06 0.06 0.06 0.07 0.06 0.05 0.06 0.08 0.10 0.12 0.09 0.07 0.05 0.04 0.03 0.02 0.01 0.01 0.01 0.01 0.01 0.01 0.01 0.01 0.02 0.02 0.03 0.03 0.02 0.03 0.07 0.07
0.02 0.02 0.02 0.02 0.02 0.02 0.05 0.06 0.07 0.07 0.07 0.06 0.05 0.05 0.07 0.10 0.11 0.09 0.06 0.04 0.04 0.03 0.01 0.01 0.01 0.01 0.01 0.01 0.01 0.01 0.02 0.03 0.05 0.05 0.04 0.05 0.04 0.03
0.04 0.03 0.01 0.01 0.01 0.01 0.03 0.05 0.06 0.07 0.07 0.06 0.05 0.04 0.04 0.05 0.07 0.07 0.07 0.05 0.03 0.03 0.02 0.01 0.01 0.01 0.01 0.01 0.01 0.01 0.01 0.02 0.03 0.04 0.04 0.04 0.03 0.01
0.04 0.03 0.03 0.01 0.00 0.01 0.02 0.05 0.06 0.06 0.07 0.06 0.07 0.07 0.05 0.05 0.05 0.06 0.07 0.07 0.04 0.02 0.01 0.01 0.01 0.01 0.00 0.01 0.01 0.01 0.01 0.01 0.01 0.02 0.02 0.02 0.02 0.01
0.04 0.04 0.04 0.01 0.00 0.01 0.02 0.04 0.06 0.06 0.07 0.07 0.07 0.08 0.08 0.06 0.06 0.06 0.07 0.08 0.07 0.05 0.03 0.01 0.01 0.01 0.00 0.00 0.00 0.01 0.01 0.01 0.01 0.01 0.01 0.01 0.01 0.00
0.04 0.04 0.03 0.01 0.00 0.01 0.02 0.03 0.05 0.06 0.07 0.08 0.08 0.08 0.09 0.08 0.08 0.09 0.10 0.09 0.08 0.08 0.06 0.03 0.02 0.01 0.01 0.00 0.00 0.00 0.01 0.01 0.01 0.01 0.01 0.00 0.00 0.00
0.02 0.02 0.01 0.01 0.01 0.02 0.03 0.03 0.04 0.06 0.07 0.08 0.10 0.10 0.12 0.13 0.12 0.10 0.10 0.09 0.08 0.08 0.07 0.05 0.03 0.02 0.02 0.01 0.00 0.00 0.00 0.00 0.00 0.01 0.01 0.00 0.00 0.00
0.05 0.05 0.04 0.03 0.02 0.03 0.05 0.06 0.06 0.07 0.09 0.12 0.14 0.14 0.14 0.15 0.14 0.12 0.10 0.08 0.08 0.07 0.06 0.05 0.05 0.04 0.03 0.02 0.01 0.01 0.01 0.01 0.00 0.00 0.00 0.00 0.00 0.00
0.05 0.07 0.06 0.05 0.04 0.05 0.07 0.08 0.08 0.10 0.12 0.16 0.18 0.17 0.15 0.15 0.14 0.13 0.11 0.09 0.08 0.06 0.05 0.04 0.04 0.05 0.04 0.03 0.02 0.01 0.01 0.00 0.00 0.00 0.00 0.00 0.00 0.00
0.06 0.08 0.07 0.07 0.06 0.08 0.10 0.09 0.10 0.13 0.17 0.20 0.20 0.20 0.16 0.14 0.14 0.13 0.14 0.11 0.07 0.05 0.04 0.04 0.03 0.03 0.03 0.02 0.01 0.01 0.01 0.01 0.00 0.00 0.00 0.00 0.00 0.00
0.08 0.08 0.09 0.09 0.09 0.10 0.12 0.13 0.14 0.17 0.21 0.23 0.23 0.22 0.17 0.13 0.13 0.13 0.13 0.11 0.08 0.06 0.05 0.04 0.03 0.02 0.02 0.01 0.01 0.00 0.00 0.01 0.01 0.01 0.01 0.00 0.00 0.00
0.06 0.08 0.10 0.10 0.11 0.13 0.15 0.16 0.17 0.19 0.21 0.23 0.25 0.22 0.18 0.14 0.12 0.11 0.11 0.11 0.09 0.06 0.05 0.04 0.03 0.02 0.01 0.01 0.01 0.01 0.00 0.00 0.00 0.00 0.00 0.00 0.00 0.00
0.06 0.07 0.09 0.11 0.13 0.14 0.15 0.17 0.18 0.20 0.22 0.23 0.24 0.22 0.18 0.13 0.11 0.09 0.09 0.09 0.07 0.05 0.04 0.03 0.02 0.01 0.01 0.01 0.01 0.01 0.00 0.00 0.00 0.00 0.00 0.00 0.00 0.00
0.08 0.08 0.10 0.13 0.14 0.14 0.15 0.15 0.17 0.18 0.21 0.23 0.22 0.19 0.17 0.13 0.09 0.07 0.07 0.06 0.05 0.04 0.03 0.02 0.02 0.01 0.01 0.00 0.00 0.00 0.00 0.00 0.00 0.00 0.00 0.00 0.00 0.00
MSLP
1009.54 1009.56 1009.62 1009.72 1009.83 1009.93 1010.01 1010.06 1010.09 1010.10 1010.12 1010.14 1010.20 1010.30 1010.46 1010.66 1010.92 1011.22 1011.54 1011.89 1012.22 1012.53 1012.80 1013.01 1013.17 1013.25 1013.27 1013.24 1013.17 1013.09 1013.01 1012.95 1012.93 1012.94 1013.00 1013.11 1013.25 1013.43
1009.60 1009.63 1009.68 1009.75 1009.81 1009.87 1009.90 1009.91 1009.91 1009.90 1009.92 1009.96 1010.06 1010.21 1010.43 1010.70 1011.02 1011.38 1011.75 1012.12 1012.46 1012.77 1013.01 1013.19 1013.29 1013.33 1013.30 1013.21 1013.09 1012.96 1012.83 1012.71 1012.62 1012.58 1012.57 1012.60 1012.68 1012.79
1009.63 1009.69 1009.75 1009.82 1009.86 1009.89 1009.88 1009.86 1009.83 1009.81 1009.82 1009.87 1009.99 1010.18 1010.43 1010.75 1011.11 1011.51 1011.91 1012.29 1012.64 1012.94 1013.17 1013.32 1013.40 1013.41 1013.36 1013.25 1013.10 1012.94 1012.77 1012.62 1012.48 1012.38 1012.32 1012.30 1012.31 1012.37
1009.54 1009.66 1009.77 1009.86 1009.91 1009.94 1009.93 1009.89 1009.85 1009.82 1009.82 1009.87 1009.99 1010.19 1010.46 1010.79 1011.16 1011.57 1011.97 1012.36 1012.71 1013.00 1013.23 1013.39 1013.47 1013.48 1013.43 1013.33 1013.19 1013.03 1012.86 1012.69 1012.53 1012.41 1012.31 1012.25 1012.23 1012.26
1009.26 1009.45 1009.63 1009.78 1009.88 1009.94 1009.96 1009.94 1009.91 1009.88 1009.88 1009.93 1010.04 1010.22 1010.47 1010.79 1011.14 1011.53 1011.93 1012.31 1012.66 1012.96 1013.21 1013.39 1013.50 1013.55 1013.54 1013.48 1013.38 1013.25 1013.10 1012.95 1012.81 1012.68 1012.58 1012.52 1012.49 1012.52
1008.75 1009.03 1009.29 1009.51 1009.70 1009.83 1009.91 1009.94 1009.94 1009.94 1009.94 1009.98 1010.07 1010.22 1010.43 1010.71 1011.03 1011.39 1011.76 1012.14 1012.50 1012.82 1013.11 1013.34 1013.51 1013.63 1013.69 1013.70 1013.67 1013.61 1013.52 1013.42 1013.31 1013.22 1013.15 1013.11 1013.11 1013.16
1008.02 1008.37 1008.71 1009.03 1009.31 1009.53 1009.69 1009.80 1009.86 1009.89 1009.91 1009.95 1010.01 1010.12 1010.29 1010.52 1010.80 1011.12 1011.48 1011.86 1012.24 1012.61 1012.96 1013.26 1013.53 1013.74 1013.90 1014.02 1014.08 1014.10 1014.10 1014.07 1014.04 1014.00 1013.99 1014.00 1014.04 1014.13
1007.11 1007.52 1007.93 1008.34 1008.71 1009.03 1009.29 1009.48 1009.61 1009.69 1009.73 1009.76 1009.81 1009.88 1010.01 1010.19 1010.44 1010.74 1011.10 1011.50 1011.92 1012.36 1012.79 1013.19 1013.57 1013.90 1014.17 1014.40 1014.58 1014.71 1014.80 1014.87 1014.92 1014.97 1015.02 1015.10 1015.20 1015.34
1006.14 1006.57 1007.03 1007.50 1007.96 1008.37 1008.71 1008.98 1009.17 1009.29 1009.36 1009.39 1009.42 1009.47 1009.56 1009.72 1009.95 1010.25 1010.63 1011.08 1011.57 1012.09 1012.62 1013.13 1013.63 1014.08 1014.48 1014.82 1015.11 1015.35 1015.54 1015.71 1015.86 1015.99 1016.13 1016.28 1016.45 1016.63
1005.21 1005.65 1006.13 1006.64 1007.14 1007.61 1008.01 1008.33 1008.57 1008.72 1008.80 1008.84 1008.85 1008.89 1008.97 1009.12 1009.35 1009.68 1010.10 1010.61 1011.18 1011.80 1012.43 1013.07 1013.67 1014.23 1014.74 1015.19 1015.58 1015.92 1016.22 1016.47 1016.71 1016.94 1017.16 1017.38 1017.60 1017.83
1004.44 1004.86 1005.33 1005.84 1006.36 1006.84 1007.27 1007.61 1007.87 1008.03 1008.11 1008.14 1008.15 1008.18 1008.26 1008.42 1008.68 1009.06 1009.54 1010.12 1010.78 1011.49 1012.22 1012.95 1013.65 1014.30 1014.90 1015.43 1015.90 1016.32 1016.69 1017.03 1017.35 1017.65 1017.94 1018.23 1018.50 1018.77
1003.88 1004.26 1004.70 1005.18 1005.67 1006.14 1006.55 1006.89 1007.13 1007.28 1007.35 1007.37 1007.38 1007.41 1007.50 1007.69 1007.99 1008.41 1008.95 1009.61 1010.34 1011.13 1011.94 1012.74 1013.51 1014.22 1014.87 1015.45 1015.98 1016.45 1016.88 1017.29 1017.67 1018.04 1018.39 1018.73 1019.05 1019.35
1003.51 1003.84 1004.23 1004.66 1005.11 1005.53 1005.90 1006.19 1006.40 1006.52 1006.58 1006.59 1006.59 1006.63 1006.74 1006.96 1007.30 1007.78 1008.38 1009.09 1009.88 1010.72 1011.57 1012.41 1013.20 1013.94 1014.61 1015.22 1015.77 1016.27 1016.74 1017.19 1017.63 1018.05 1018.46 1018.84 1019.21 1019.53
1003.27 1003.55 1003.89 1004.26 1004.64 1005.00 1005.31 1005.55 1005.72 1005.80 1005.83 1005.83 1005.84 1005.89 1006.03 1006.28 1006.66 1007.18 1007.82 1008.57 1009.39 1010.25 1011.12 1011.95 1012.74 1013.47 1014.13 1014.73 1015.28 1015.80 1016.29 1016.78 1017.26 1017.72 1018.18 1018.61 1019.01 1019.37
1003.05 1003.29 1003.58 1003.89 1004.21 1004.50 1004.75 1004.94 1005.06 1005.12 1005.13 1005.13 1005.14 1005.22 1005.39 1005.67 1006.09 1006.64 1007.31 1008.08 1008.91 1009.76 1010.60 1011.41 1012.16 1012.85 1013.48 1014.06 1014.60 1015.12 1015.63 1016.14 1016.65 1017.16 1017.66 1018.13 1018.57 1018.97
1002.76 1002.97 1003.21 1003.48 1003.74 1003.99 1004.19 1004.34 1004.43 1004.47 1004.48 1004.48 1004.52 1004.63 1004.83 1005.16 1005.61 1006.19 1006.87 1007.63 1008.45 1009.27 1010.08 1010.84 1011.54 1012.18 1012.77 1013.32 1013.84 1014.36 1014.88 1015.41 1015.95 1016.50 1017.03 1017.54 1018.02 1018.45
1002.34 1002.53 1002.74 1002.98 1003.21 1003.42 1003.60 1003.73 1003.80 1003.84 1003.86 1003.90 1003.97 1004.11 1004.36 1004.73 1005.21 1005.81 1006.51 1007.27 1008.06 1008.85 1009.60 1010.31 1010.97 1011.56 1012.11 1012.63 1013.13 1013.65 1014.18 1014.73 1015.29 1015.87 1016.43 1016.98 1017.48 1017.95
1001.79 1001.97 1002.17 1002.39 1002.61 1002.81 1002.97 1003.10 1003.18 1003.24 1003.29 1003.36 1003.47 1003.67 1003.97 1004.38 1004.90 1005.53 1006.24 1006.99 1007.77 1008.53 1009.25 1009.91 1010.52 1011.08 1011.59 1012.09 1012.59 1013.10 1013.63 1014.19 1014.78 1015.37 1015.95 1016.52 1017.04 1017.52
1001.17 1001.35 1001.55 1001.77 1001.99 1002.18 1002.36 1002.49 1002.59 1002.68 1002.76 1002.87 1003.03 1003.28 1003.64 1004.10 1004.66 1005.32 1006.05 1006.81 1007.58 1008.32 1009.02 1009.66 1010.24 1010.77 1011.27 1011.75 1012.24 1012.74 1013.28 1013.85 1014.43 1015.03 1015.62 1016.18 1016.70 1017.18
1000.58 1000.76 1000.97 1001.19 1001.42 1001.62 1001.80 1001.95 1002.07 1002.17 1002.29 1002.44 1002.65 1002.95 1003.35 1003.86 1004.47 1005.16 1005.92 1006.70 1007.48 1008.23 1008.92 1009.55 1010.12 1010.64 1011.12 1011.59 1012.07 1012.57 1013.09 1013.65 1014.22 1014.80 1015.37 1015.91 1016.41 1016.87
1000.10 1000.29 1000.50 1000.73 1000.97 1001.18 1001.36 1001.52 1001.65 1001.77 1001.90 1002.07 1002.32 1002.66 1003.10 1003.65 1004.30 1005.04 1005.83 1006.64 1007.44 1008.20 1008.90 1009.53 1010.10 1010.61 1011.09 1011.54 1012.00 1012.48 1012.98 1013.50 1014.04 1014.59 1015.12 1015.63 1016.09 1016.51
999.77 999.97 1000.20 1000.44 1000.67 1000.89 1001.07 1001.22 1001.35 1001.47 1001.61 1001.79 1002.05 1002.41 1002.88 1003.47 1004.15 1004.92 1005.74 1006.58 1007.40 1008.18 1008.90 1009.54 1010.10 1010.61 1011.07 1011.50 1011.93 1012.37 1012.83 1013.31 1013.81 1014.30 1014.79 1015.24 1015.66 1016.03
999.59 999.80 1000.04 1000.30 1000.54 1000.75 1000.92 1001.06 1001.18 1001.28 1001.41 1001.59 1001.85 1002.22 1002.70 1003.30 1004.01 1004.80 1005.64 1006.50 1007.34 1008.13 1008.86 1009.50 1010.06 1010.55 1010.98 1011.38 1011.77 1012.16 1012.57 1012.99 1013.43 1013.87 1014.30 1014.70 1015.07 1015.38
Thickness
5662 5667 5671 5678 5682 5687 5690 5692 5692 5694 5701 5707 5710 5713 5714 5714 5712 5714 5716 5713 5713 5712 5712 5712 5711 5710 5709 5709 5709 5708 5708 5708 5709 5710 5711 5712 5713 5714
5647 5652 5658 5665 5671 5675 5680 5683 5686 5688 5693 5703 5703 5707 5708 5710 5707 5708 5708 5707 5707 5706 5706 5706 5705 5705 5704 5704 5704 5704 5704 5705 5706 5707 5709 5709 5710 5712
5633 5638 5644 5649 5656 5663 5668 5672 5676 5680 5682 5691 5697 5699 5698 5700 5701 5702 5703 5703 5702 5700 5699 5699 5699 5698 5698 5698 5699 5699 5700 5701 5702 5703 5705 5706 5707 5709
5618 5622 5628 5635 5640 5647 5652 5658 5665 5670 5673 5678 5684 5687 5688 5692 5693 5694 5696 5697 5696 5692 5692 5692 5692 5691 5691 5692 5693 5693 5694 5696 5697 5699 5700 5702 5703 5704
5604 5609 5614 5619 5625 5632 5638 5644 5651 5658 5663 5668 5673 5678 5679 5683 5684 5686 5688 5688 5688 5685 5684 5684 5684 5684 5684 5685 5686 5687 5689 5690 5691 5693 5694 5696 5697 5698
5590 5595 5601 5605 5611 5616 5623 5630 5637 5644 5651 5657 5663 5667 5669 5673 5676 5677 5678 5679 5681 5681 5678 5677 5677 5676 5677 5678 5679 5680 5682 5683 5684 5685 5686 5687 5688 5689
5577 5582 5587 5592 5598 5602 5610 5617 5624 5631 5640 5647 5653 5658 5662 5664 5668 5671 5671 5671 5671 5672 5672 5671 5672 5672 5671 5670 5670 5671 5673 5675 5675 5676 5677 5678 5679 5679
5566 5570 5575 5579 5583 5586 5593 5600 5608 5618 5629 5637 5645 5650 5655 5660 5662 5664 5664 5663 5662 5664 5665 5664 5666 5666 5664 5663 5661 5662 5664 5665 5666 5666 5667 5667 5667 5668
5557 5560 5565 5572 5573 5579 5582 5586 5594 5603 5612 5623 5634 5643 5649 5654 5656 5657 5658 5660 5662 5660 5659 5656 5657 5657 5655 5652 5652 5653 5654 5655 5656 5656 5656 5656 5656 5657
5548 5552 5555 5559 5564 5568 5573 5580 5588 5597 5605 5613 5625 5635 5641 5647 5650 5653 5653 5652 5651 5652 5654 5650 5649 5648 5646 5643 5642 5643 5644 5645 5645 5645 5646 5646 5646 5645
5542 5545 5548 5551 5553 5555 5561 5570 5578 5588 5595 5604 5613 5622 5629 5635 5641 5643 5644 5644 5642 5643 5646 5646 5642 5640 5638 5636 5632 5632 5633 5634 5634 5635 5635 5636 5636 5635
5536 5540 5541 5544 5545 5545 5550 5559 5567 5577 5586 5596 5602 5610 5618 5625 5631 5637 5641 5642 5641 5638 5640 5641 5638 5637 5632 5629 5627 5625 5624 5623 5624 5624 5625 5626 5627 5629
5532 5537 5541 5538 5537 5537 5541 5550 5558 5565 5575 5585 5596 5605 5613 5620 5626 5632 5637 5641 5642 5644 5641 5640 5637 5638 5636 5627 5623 5622 5620 5618 5617 5615 5616 5617 5619 5621
5528 5533 5536 5533 5531 5530 5534 5540 5545 5551 5564 5576 5588 5600 5609 5616 5622 5628 5631 5635 5639 5643 5641 5641 5639 5637 5634 5627 5622 5618 5618 5617 5615 5614 5612 5610 5611 5612
5524 5526 5526 5526 5525 5526 5527 5531 5535 5545 5558 5570 5582 5594 5605 5612 5617 5620 5623 5626 5628 5631 5632 5635 5637 5635 5633 5630 5624 5619 5616 5614 5613 5612 5610 5608 5608 5607
5517 5520 5518 5519 5522 5526 5529 5528 5534 5545 5554 5565 5576 5587 5596 5603 5609 5614 5617 5619 5619 5621 5623 5627 5630 5631 5630 5627 5623 5618 5615 5613 5611 5609 5608 5606 5605 5604
5518 5519 5521 5524 5525 5528 5531 5533 5537 5542 5549 5559 5569 5579 5588 5597 5603 5608 5613 5615 5616 5617 5617 5619 5621 5622 5624 5623 5619 5616 5614 5611 5609 5606 5604 5603 5602 5601
5511 5518 5521 5524 5527 5531 5532 5534 5537 5542 5549 5557 5566 5575 5584 5592 5599 5604 5609 5612 5614 5614 5615 5616 5616 5615 5613 5613 5615 5613 5611 5608 5605 5601 5602 5600 5599 5598
5510 5516 5520 5524 5528 5531 5533 5535 5539 5543 5549 5556 5564 5573 5581 5588 5595 5600 5605 5608 5610 5610 5611 5613 5614 5613 5612 5610 5605 5607 5607 5605 5601 5599 5599 5599 5598 5597
5512 5517 5520 5524 5527 5530 5532 5535 5538 5543 5548 5555 5562 5571 5579 5586 5592 5597 5601 5604 5606 5607 5607 5609 5611 5612 5613 5611 5607 5602 5601 5601 5599 5597 5597 5597 5595 5591
5514 5517 5521 5525 5527 5529 5531 5534 5538 5543 5549 5555 5562 5570 5577 5584 5589 5593 5597 5597 5602 5604 5605 5605 5607 5608 5610 5608 5603 5599 5597 5594 5595 5597 5596 5595 5593 5591
5517 5519 5521 5524 5526 5528 5530 5534 5538 5542 5548 5555 5563 5570 5577 5584 5588 5591 5594 5597 5599 5601 5602 5602 5600 5602 5604 5603 5602 5597 5594 5590 5588 5588 5589 5590 5594 5593
5517 5519 5521 5523 5525 5527 5531 5534 5538 5543 5549 5556 5564 5570 5576 5582 5586 5589 5593 5596 5597 5598 5598 5597 5597 5598 5601 5601 5600 5597 5592 5589 5588 5586 5586 5585 5584 5583